Weather History for Cape Girardeau, MO

Change the Weather History Date:

Saturday, May 18, 2013

  Actual Average Record
Temperature  
Mean Temperature 71 °F 67 °F  
Max Temperature 84 °F 78 °F 92 °F (1962)
Min Temperature 58 °F 56 °F 40 °F (2002)
Degree Days  
Heating Degree Days 0 2  
Month to date heating degree days 83 53  
Since 1 July heating degree days 4349 4371  
Cooling Degree Days 6 4  
Month to date cooling degree days 39 50  
Year to date cooling degree days 64 81  
Growing Degree Days 20 (Base 50)    
Moisture  
Dew Point 62 °F    
Average Humidity 78    
Maximum Humidity 100    
Minimum Humidity 55    
Precipitation  
Precipitation 0.00 in 0.17 in 2.82 in (1981)
Month to date precipitation 2.04 3.44  
Year to date precipitation 14.86 19.08  
Sea Level Pressure  
Sea Level Pressure 29.97 in    
Wind  
Wind Speed 3 mph (SE)    
Max Wind Speed 12 mph    
Max Gust Speed 15 mph    
Visibility 4 miles    
Events Fog    
T = Trace of Precipitation, MM = Missing Value Source: NWS Daily Summary

Daily Weather History Graph

Daily Weather History Graph

Search for Another Location

Airport:

Trip Planner

Search our weather history database for the weather conditions in past years. The results will help you decide how hot, cold, wet, or windy it might be!

Date:

Astronomy

May. 18, 2013 Rise Set
Actual Time 5:47 AM CDT 8:02 PM CDT
Civil Twilight 5:17 AM CDT 8:32 PM CDT
Nautical Twilight 4:41 AM CDT 9:08 PM CDT
Astronomical Twilight 4:02 AM CDT 9:47 PM CDT
Moon 1:14 PM CDT (5/18) 1:30 AM CDT (5/18)
Length of Visible Light 15h 14m
Length of Day
14h 15m
First Quarter, 55% of the Moon is Illuminated
May 18
First Quarter
May 24
Full
May 31
Last Quarter
Jun 8
New
Jun 16
First Quarter

Hourly Weather History & Observations

Time (CDT) Temp. Heat Index Dew Point Humidity Pressure Visibility Wind Dir Wind Speed Gust Speed Precip Events Conditions
12:01 AM 62.6 °F - 60.8 °F 94% 29.97 in 1.8 mi Calm Calm - N/A   Clear
12:19 AM 62.6 °F - 62.6 °F 100% 29.97 in 0.8 mi Calm Calm - N/A   Mist
12:30 AM 62.6 °F - 60.8 °F 94% 29.97 in 0.2 mi Calm Calm - N/A Fog Fog
12:37 AM 62.6 °F - 60.8 °F 94% 29.97 in 0.5 mi Calm Calm - N/A Fog Fog
12:51 AM 60.8 °F - 60.8 °F 100% 29.97 in 0.2 mi Calm Calm - N/A Fog Fog
12:53 AM 60.1 °F - 60.1 °F 100% 29.96 in 0.2 mi Calm Calm - N/A Fog Fog
1:00 AM 60.8 °F - 60.8 °F 100% 29.97 in 0.2 mi Calm Calm - N/A Fog Fog
1:32 AM 60.8 °F - 59.0 °F 94% 29.96 in 0.2 mi Calm Calm - N/A Fog Fog
1:45 AM 59.0 °F - 59.0 °F 100% 29.97 in 0.2 mi Calm Calm - N/A Fog Fog
1:53 AM 59.0 °F - 59.0 °F 100% 29.96 in 0.2 mi Calm Calm - N/A Fog Fog
2:53 AM 59.0 °F - 57.9 °F 96% 29.96 in 0.2 mi Calm Calm - N/A Fog Fog
3:08 AM 60.8 °F - 59.0 °F 94% 29.96 in 0.2 mi Calm Calm - N/A Fog Fog
3:19 AM 60.8 °F - 60.8 °F 100% 29.96 in 1.0 mi Calm Calm - N/A   Mist
3:22 AM 59.0 °F - 59.0 °F 100% 29.96 in 0.8 mi Calm Calm - N/A   Mist
3:33 AM 59.0 °F - 57.2 °F 94% 29.96 in 0.2 mi Calm Calm - N/A Fog Fog
3:53 AM 57.9 °F - 57.9 °F 100% 29.96 in 0.2 mi Calm Calm - N/A Fog Fog
4:09 AM 57.2 °F - 57.2 °F 100% 29.96 in 1.0 mi ENE 3.5 mph - N/A   Mist
4:12 AM 57.2 °F - 57.2 °F 100% 29.96 in 3.0 mi Calm Calm - N/A   Mostly Cloudy
4:19 AM 59.0 °F - 57.2 °F 94% 29.95 in 4.0 mi East 3.5 mph - N/A   Scattered Clouds
4:32 AM 57.2 °F - 57.2 °F 100% 29.96 in 1.5 mi SW 3.5 mph - N/A   Partly Cloudy
4:34 AM 57.2 °F - 57.2 °F 100% 29.96 in 0.8 mi Calm Calm - N/A   Mist
4:45 AM 57.2 °F - 57.2 °F 100% 29.96 in 0.2 mi Calm Calm - N/A Fog Fog
4:53 AM 57.9 °F - 57.0 °F 97% 29.96 in 0.2 mi Calm Calm - N/A Fog Fog
5:53 AM 62.1 °F - 61.0 °F 96% 29.97 in 0.2 mi Calm Calm - N/A Fog Fog
6:38 AM 62.6 °F - 62.6 °F 100% 29.99 in 0.5 mi Calm Calm - N/A Fog Fog
6:47 AM 62.6 °F - 62.6 °F 100% 29.99 in 1.8 mi Calm Calm - N/A   Overcast
6:48 AM 62.6 °F - 62.6 °F 100% 29.99 in 2.0 mi Calm Calm - N/A   Overcast
6:53 AM 63.0 °F - 62.1 °F 97% 29.99 in 2.0 mi Calm Calm - N/A   Overcast
7:02 AM 62.6 °F - 62.6 °F 100% 30.00 in 1.5 mi Calm Calm - N/A   Overcast
7:13 AM 64.4 °F - 62.6 °F 94% 30.00 in 0.2 mi ESE 3.5 mph - N/A Fog Fog
7:53 AM 64.9 °F - 64.0 °F 97% 30.00 in 1.0 mi ENE 4.6 mph - N/A   Overcast
8:12 AM 64.4 °F - 64.4 °F 100% 30.01 in 2.0 mi Calm Calm - N/A   Overcast
8:25 AM 66.2 °F - 64.4 °F 94% 30.01 in 4.0 mi Calm Calm - N/A   Overcast
8:53 AM 66.0 °F - 64.9 °F 96% 30.01 in 6.0 mi Calm Calm - N/A   Overcast
9:06 AM 66.2 °F - 64.4 °F 94% 30.01 in 7.0 mi Calm Calm - N/A   Mostly Cloudy
9:24 AM 71.6 °F - 64.4 °F 78% 30.02 in 9.0 mi Calm Calm - N/A   Partly Cloudy
9:53 AM 72.0 °F - 64.9 °F 78% 30.00 in 10.0 mi Calm Calm - N/A   Scattered Clouds
10:06 AM 73.4 °F - 64.4 °F 73% 30.01 in 10.0 mi Calm Calm - N/A   Mostly Cloudy
10:34 AM 73.4 °F - 64.4 °F 73% 30.01 in 10.0 mi Calm Calm - N/A   Scattered Clouds
10:53 AM 75.0 °F - 64.0 °F 69% 30.00 in 10.0 mi Calm Calm - N/A   Clear
11:53 AM 75.9 °F - 64.0 °F 67% 29.99 in 10.0 mi Calm Calm - N/A   Clear
12:51 PM 78.8 °F - 66.2 °F 65% 29.97 in 10.0 mi Calm Calm - N/A   Overcast
12:53 PM 80.1 °F 82.3 °F 66.9 °F 64% 29.97 in 10.0 mi Calm Calm - N/A   Overcast
1:53 PM 80.6 °F 82.7 °F 66.2 °F 61% 29.96 in 10.0 mi South 4.6 mph - N/A   Mostly Cloudy
2:53 PM 82.9 °F 85.4 °F 66.9 °F 58% 29.94 in 10.0 mi NE 8.1 mph - N/A   Mostly Cloudy
3:53 PM 82.0 °F 83.8 °F 64.9 °F 56% 29.93 in 10.0 mi SW 4.6 mph - N/A   Mostly Cloudy
4:53 PM 82.9 °F 85.4 °F 66.9 °F 58% 29.92 in 10.0 mi Variable 4.6 mph - N/A   Scattered Clouds
5:53 PM 81.0 °F 83.3 °F 66.9 °F 62% 29.92 in 10.0 mi SSW 5.8 mph - N/A   Clear
6:53 PM 80.1 °F 82.1 °F 66.0 °F 62% 29.92 in 10.0 mi South 3.5 mph - N/A   Mostly Cloudy
7:53 PM 73.9 °F - 66.9 °F 79% 29.92 in 8.0 mi SE 4.6 mph - N/A   Clear
8:53 PM 71.6 °F - 66.2 °F 83% 29.92 in 8.0 mi SE 4.6 mph - N/A   Mostly Cloudy
9:53 PM 71.1 °F - 66.0 °F 84% 29.91 in 8.0 mi SE 5.8 mph - N/A   Partly Cloudy
10:53 PM 72.0 °F - 66.0 °F 81% 29.90 in 8.0 mi SE 5.8 mph - N/A   Overcast
11:53 PM 72.0 °F - 66.0 °F 81% 29.90 in 8.0 mi ESE 5.8 mph - N/A   Overcast